Current weather by "City, St" or "zip code"  
 

Current Conditions: BEEVILLE MUNI

Clear


80.2 F

Last Updated on Jun 17 2024, 11:55 PM CDT
Humidity: 73%
Wind Speed: 10.3 mph
Barometer 29.81 in
Dewpoint: 70.7 F
Visibility: 10.00 mi
Precip: --
Heat Index: 83.7 F
Wind Chill: NA
Current conditions at:

BEEVILLE MUNI (KBEA)

Lat: 28.36 Lon: 97.79

active severe weather and emergency alerts image image weather storm and storm spotter reports image weather observation monitoring service image
Active
Alerts
Storm Reports Obs
Monitoring

Sign-up For Email & Text Message Weather Alert Notification Services



Advertise Here

Observation History for BEEVILLE MUNI


Time Wind
(mph)
Vis
(mi)
Weather Precip (in) Temperature (F) Relative
Humidity
Wind
Chill
(F)
Heat
Index
(F)
Pressure
Air Dwpt altimeter
(in)
sea level
(mb)
Rmks
11:55 PM CDT 10.3 10.00 Clear -- 80.2 70.7 73% NA 83.7 29.81 1009.5
10:55 PM CDT SE 10.3 10.00 Clear -- 80.2 71.8 75% NA 84.0 29.81 1009.5
10:35 PM CDT SE 9.2 10.00 Partly Cloudy -- 80.6 72.5 76% NA 84.9 29.81 1009.5
09:35 PM CDT 10.3 10.00 Partly Cloudy -- 81.5 71.1 71% NA 85.6 29.79 1008.8
09:15 PM CDT SE 13.9 10.00 Clear -- 81.5 70.5 69% NA 85.5 29.78 1008.5
08:55 PM CDT SE 17.2 10.00 Partly Cloudy -- 81.5 70.9 70% NA 85.6 29.77 1008.1
07:35 PM CDT SE 19.7 10.00 Clear and Windy -- 86.7 68.9 56% NA 90.9 29.75 1007.5
06:55 PM CDT 18.3 10.00 Partly Cloudy -- 87.6 69.8 56% NA 92.5 29.75 1007.5
05:55 PM CDT 17.2 10.00 NULL -- 91.4 68.2 47% NA 95.7 29.73 1006.8
05:35 PM CDT SE 21.9 10.00 Windy -- 93.7 68.5 44% NA 98.8 29.73 1006.8
04:15 PM CDT 18.3 10.00 NULL -- 94.8 66.6 40% NA 98.6 29.74 1007.1
03:55 PM CDT 18.3 10.00 NULL -- 94.5 67.5 41% NA 98.8 29.74 1007.1
03:35 PM CDT SE 16.1 10.00 NULL -- 95.4 67.1 40% NA 99.5 29.75 1007.5
02:55 PM CDT 12.8 10.00 NULL -- 94.3 68.2 43% NA 99.1 29.75 1007.5
02:35 PM CDT SE 13.9 10.00 NULL -- 93.4 68.9 45% NA 98.6 29.76 1007.8
02:15 PM CDT 12.8 10.00 NULL -- 94.6 68.9 43% NA 100.2 29.76 1007.8
01:35 PM CDT SE 11.4 10.00 Partly Cloudy -- 92.8 68.5 45% NA 97.7 29.77 1008.1
01:15 PM CDT 13.9 10.00 Mostly Cloudy -- 94.5 68.7 43% NA 99.9 29.77 1008.1
11:35 AM CDT 11.4 10.00 Mostly Cloudy -- 92.3 68.9 47% NA 97.3 29.79 1008.8
11:15 AM CDT 9.2 10.00 Mostly Cloudy -- 90.1 69.4 51% NA 95.2 29.79 1008.8
08:15 AM CDT 10.00 Partly Cloudy -- NULL % NA NA M
07:15 AM CDT 0.0 10.00 Partly Cloudy -- 77.9 73.4 86% NA 79.5 29.78 1008.5
06:35 AM CDT 0.0 10.00 Partly Cloudy -- 77.2 72.9 87% NA 78.6 29.78 1008.5
06:15 AM CDT 3.4 10.00 Clear -- 77.2 72.7 86% NA 78.6 29.77 1008.1

Regional Weather Observation


PLEASANTON MUNI (KPEZ)

NULL
76.8 F

ORANGE GROVE (KNOG)

Clear
NULL F

ALICE (KALI)

Mostly Cloudy
82.0 F

S ANTONIO/STINSN (KSSF)

Cloudy
82.0 F

ROBSTOWN/NUECES (KRBO)

Partly Cloudy
82.4 F

KELLY AFB (KSKF)

Cloudy
84.2 F

Advertise Here


Advertise Here